Weather History for Hereford, TX

Change the Weather History Date:

Wednesday, October 30, 2013

  Actual Average (KAMA) Record (KAMA)
Temperature  
Mean Temperature 66 °F 54 °F  
Max Temperature 75 °F 67 °F 86 °F (1968)
Min Temperature 57 °F 40 °F 12 °F (1993)
Degree Days  
Heating Degree Days 0 12  
Month to date heating degree days 222  
Since 1 July heating degree days 266  
Cooling Degree Days 2 0  
Month to date cooling degree days 25  
Year to date cooling degree days 1395  
Growing Degree Days 16 (Base 50)    
Moisture  
Dew Point 45 °F    
Average Humidity 55    
Maximum Humidity 91    
Minimum Humidity 15    
Precipitation  
Precipitation 0.00 in 0.04 in 2.38 in (1998)
Month to date precipitation 1.62  
Year to date precipitation 18.81  
Snow  
Snow 0.00 in 0.00 in 2.10 in (1926)
Month to date snowfall 0.2  
Since 1 July snowfall 0.2  
Since 1 September snowfall 0.2  
Snow Depth -    
Sea Level Pressure  
Sea Level Pressure 29.88 in    
Wind  
Wind Speed 16 mph (SW)    
Max Wind Speed 26 mph    
Max Gust Speed 37 mph    
Visibility 9 miles    
Events Rain    
T = Trace of Precipitation, MM = Missing Value Source: NWS Daily Summary

Daily Weather History Graph

Daily Weather History Graph

Search for Another Location

Airport:

Trip Planner

Search our weather history database for the weather conditions in past years. The results will help you decide how hot, cold, wet, or windy it might be!

Date:

Astronomy

Oct. 30, 2013 Rise Set
Actual Time 8:08 AM CDT 6:56 PM CDT
Civil Twilight 7:42 AM CDT 7:22 PM CDT
Nautical Twilight 7:12 AM CDT 7:52 PM CDT
Astronomical Twilight 6:43 AM CDT 8:22 PM CDT
Moon 4:08 AM CDT (10/30) 4:35 PM CDT (10/30)
Length of Visible Light 11h 40m
Length of Day
10h 48m
Waning Crescent, 17% of the Moon is Illuminated
Oct 30
Waning Crescent
Nov 3
New
Nov 9
First Quarter
Nov 17
Full
Nov 25
Last Quarter

Hourly Weather History & Observations

Time (CDT) Temp. Dew Point Humidity Pressure Visibility Wind Dir Wind Speed Gust Speed Precip Events Conditions
12:15 AM 64.9 °F 57.6 °F 77% 29.95 in 10.0 mi South 20.7 mph 26.5 mph N/A   Clear
12:35 AM 64.4 °F 58.1 °F 80% 29.94 in 10.0 mi South 19.6 mph 26.5 mph N/A   Clear
12:55 AM 64.2 °F 58.5 °F 82% 29.94 in 10.0 mi South 19.6 mph 24.2 mph N/A   Clear
1:15 AM 63.9 °F 59.0 °F 84% 29.93 in 10.0 mi South 20.7 mph 25.3 mph N/A   Clear
1:35 AM 64.4 °F 59.5 °F 84% 29.93 in 10.0 mi South 18.4 mph 24.2 mph N/A   Scattered Clouds
1:55 AM 64.8 °F 60.1 °F 85% 29.93 in 10.0 mi South 18.4 mph - N/A   Mostly Cloudy
2:15 AM 65.3 °F 60.1 °F 83% 29.93 in 10.0 mi South 19.6 mph 26.5 mph N/A   Overcast
2:35 AM 65.5 °F 60.3 °F 83% 29.92 in 10.0 mi South 17.3 mph 26.5 mph N/A   Overcast
2:55 AM 65.3 °F 60.3 °F 84% 29.92 in 10.0 mi South 17.3 mph 23.0 mph N/A   Overcast
3:15 AM 65.8 °F 60.4 °F 83% 29.92 in 10.0 mi SSW 20.7 mph 27.6 mph N/A   Overcast
3:35 AM 66.0 °F 60.6 °F 83% 29.91 in 10.0 mi SSW 20.7 mph 26.5 mph N/A   Overcast
3:55 AM 66.2 °F 60.4 °F 82% 29.91 in 10.0 mi SSW 18.4 mph 26.5 mph N/A   Overcast
4:15 AM 66.2 °F 60.4 °F 82% 29.91 in 10.0 mi SSW 16.1 mph 25.3 mph N/A   Overcast
4:35 AM 66.2 °F 60.4 °F 82% 29.91 in 10.0 mi SSW 17.3 mph 24.2 mph N/A   Overcast
4:55 AM 66.0 °F 60.1 °F 81% 29.91 in 10.0 mi SSW 12.7 mph 21.9 mph N/A   Overcast
5:15 AM 65.5 °F 59.9 °F 82% 29.91 in 10.0 mi SSW 15.0 mph 24.2 mph N/A   Mostly Cloudy
5:35 AM 65.3 °F 59.5 °F 82% 29.91 in 10.0 mi SSW 11.5 mph 17.3 mph N/A   Mostly Cloudy
5:55 AM 64.6 °F 59.4 °F 83% 29.91 in 10.0 mi SSW 10.4 mph - N/A   Scattered Clouds
6:15 AM 64.4 °F 59.4 °F 84% 29.91 in 10.0 mi SSW 9.2 mph - N/A   Clear
6:35 AM 63.3 °F 59.0 °F 86% 29.91 in 10.0 mi South 10.4 mph - N/A   Clear
6:55 AM 62.8 °F 59.0 °F 87% 29.91 in 10.0 mi South 9.2 mph - N/A   Scattered Clouds
7:15 AM 62.1 °F 58.5 °F 88% 29.91 in 7.0 mi South 9.2 mph - N/A   Scattered Clouds
7:35 AM 61.9 °F 58.5 °F 89% 29.91 in 7.0 mi SSW 8.1 mph - N/A   Scattered Clouds
7:55 AM 61.0 °F 57.7 °F 89% 29.91 in 7.0 mi SSW 8.1 mph - N/A   Clear
8:15 AM 60.8 °F 57.7 °F 90% 29.91 in 7.0 mi SSW 9.2 mph - N/A   Clear
8:35 AM 60.1 °F 57.2 °F 90% 29.91 in 5.0 mi SSW 9.2 mph - N/A   Clear
8:55 AM 59.9 °F 57.2 °F 91% 29.92 in 5.0 mi SSW 8.1 mph - N/A   Clear
9:15 AM 59.2 °F 56.7 °F 91% 29.93 in 5.0 mi SSW 5.8 mph - N/A   Clear
9:35 AM 61.0 °F 58.1 °F 90% 29.93 in 5.0 mi SSW 8.1 mph - N/A   Scattered Clouds
9:55 AM 61.7 °F 58.3 °F 89% 29.94 in 7.0 mi SW 8.1 mph - N/A   Mostly Cloudy
10:15 AM 61.7 °F 56.5 °F 83% 29.95 in 7.0 mi SW 11.5 mph - N/A   Scattered Clouds
10:35 AM 61.0 °F 55.4 °F 82% 29.96 in 10.0 mi SW 12.7 mph - N/A   Clear
10:55 AM 63.1 °F 54.5 °F 73% 29.95 in 10.0 mi WSW 9.2 mph - N/A   Clear
11:15 AM 65.1 °F 49.3 °F 56% 29.95 in 10.0 mi WSW 12.7 mph 17.3 mph N/A   Clear
11:35 AM 66.6 °F 46.6 °F 49% 29.95 in 10.0 mi West 13.8 mph - N/A   Clear
11:55 AM 69.8 °F 36.0 °F 29% 29.95 in 10.0 mi WSW 20.7 mph 26.5 mph N/A   Clear
12:15 PM 70.9 °F 33.3 °F 25% 29.94 in 10.0 mi West 18.4 mph 25.3 mph N/A   Clear
12:35 PM 72.5 °F 31.8 °F 22% 29.93 in 10.0 mi West 21.9 mph 27.6 mph N/A   Clear
12:55 PM 73.4 °F 32.0 °F 22% 29.93 in 10.0 mi North - - N/A   Clear
1:15 PM 72.9 °F 31.1 °F 21% 29.91 in 10.0 mi WSW 21.9 mph 27.6 mph N/A   Clear
1:35 PM 73.4 °F 31.1 °F 21% 29.90 in 10.0 mi West 16.1 mph 25.3 mph N/A   Clear
1:55 PM 74.1 °F 30.7 °F 20% 29.88 in 10.0 mi WSW 15.0 mph 24.2 mph N/A   Clear
2:15 PM 73.0 °F 30.0 °F 20% 29.88 in 10.0 mi West 16.1 mph 21.9 mph N/A   Clear
2:35 PM 74.5 °F 28.8 °F 18% 29.87 in 10.0 mi SSW 21.9 mph - N/A   Clear
2:55 PM 74.5 °F 27.5 °F 18% 29.85 in 10.0 mi SW 17.3 mph 25.3 mph N/A   Clear
3:15 PM 74.5 °F 27.3 °F 17% 29.84 in 10.0 mi SW 17.3 mph 23.0 mph N/A   Clear
3:35 PM 74.3 °F 24.8 °F 16% 29.84 in 10.0 mi SW 21.9 mph 25.3 mph N/A   Clear
3:55 PM 75.0 °F 24.3 °F 15% 29.83 in 10.0 mi SSW 18.4 mph 24.2 mph N/A   Clear
4:15 PM 74.1 °F 25.3 °F 16% 29.83 in 10.0 mi SW 16.1 mph 25.3 mph N/A   Clear
4:35 PM 73.6 °F 24.1 °F 16% 29.83 in 10.0 mi SW 17.3 mph 26.5 mph N/A   Clear
4:55 PM 73.0 °F 25.7 °F 17% 29.82 in 10.0 mi WSW 16.1 mph 25.3 mph N/A   Clear
5:15 PM 72.9 °F 26.8 °F 18% 29.80 in 10.0 mi SW 10.4 mph - N/A   Clear
5:35 PM 72.5 °F 27.5 °F 19% 29.81 in 10.0 mi SW 11.5 mph - N/A   Clear
5:55 PM 72.0 °F 28.2 °F 20% 29.81 in 10.0 mi SSW 8.1 mph - N/A   Clear
6:15 PM 71.1 °F 28.8 °F 21% 29.79 in 10.0 mi SSW 5.8 mph - N/A   Clear
7:55 PM 62.2 °F 33.6 °F 34% 29.79 in 10.0 mi Calm Calm - N/A   Scattered Clouds
8:15 PM 65.8 °F 35.6 °F 33% 29.78 in 10.0 mi WSW 4.6 mph - N/A   Clear
8:35 PM 65.3 °F 36.1 °F 34% 29.79 in 10.0 mi SW 8.1 mph - N/A   Clear
8:55 PM 65.8 °F 37.0 °F 35% 29.79 in 10.0 mi SSW 9.2 mph - N/A   Clear
9:15 PM 65.8 °F 36.7 °F 34% 29.78 in 10.0 mi SW 11.5 mph - N/A   Clear
9:35 PM 63.1 °F 36.5 °F 37% 29.78 in 10.0 mi SSW 8.1 mph - N/A   Clear
9:55 PM 64.4 °F 35.6 °F 34% 29.77 in 10.0 mi SSW 9.2 mph - N/A   Clear
10:15 PM 63.1 °F 34.5 °F 34% 29.76 in 10.0 mi SSW 9.2 mph - N/A   Clear
10:35 PM 63.1 °F 36.1 °F 37% 29.76 in 10.0 mi SW 11.5 mph - N/A   Clear
10:55 PM 62.4 °F 36.1 °F 38% 29.77 in 10.0 mi SSW 8.1 mph - N/A   Clear
11:15 PM 61.5 °F 38.3 °F 42% 29.77 in 10.0 mi SW 10.4 mph - N/A   Scattered Clouds
11:35 PM 58.3 °F 40.1 °F 51% 29.80 in 10.0 mi West 21.9 mph 36.8 mph N/A Rain Light Rain
11:55 PM 57.2 °F 36.3 °F 46% 29.81 in 10.0 mi West 26.5 mph 35.7 mph N/A   Clear